User: anonymous   Login
Location: Unspecified
(0.0000°N, 0.0000°E)
Time: 13:49:56
(UTC+00:00)
Language:

TMSAT-1 - Orbit

View from above orbital plane
View from above orbital plane
View from above satellite
View from above satellite

Ground track
Ground track

The orbit data is extracted from the following two-line orbital elements,

1 25396U 98043C   17111.89539742 +.00000035 +00000-0 +33675-4 0  9993
2 25396 098.5798 057.1961 0003569 117.8050 242.3492 14.24436715975933
Epoch (UTC): 21 April 2017 21:29:22
Eccentricity: 0.0003569
inclination: 98.5798°
perigee height: 808 km
apogee height: 813 km
right ascension of ascending node: 57.1961°
argument of perigee: 117.8050°
revolutions per day: 14.24436715
mean anomaly at epoch: 242.3492°
orbit number at epoch: 97593

The dashed part of the orbit path shows where the satellite is in the earth's shadow,  

DLR